Altus AFB, OK

3:23 PM CDT on March 25, 2017 (GMT -0500)
Altus Air Force Base

Weather History for KLTS - September, 2014

Change the Weather History Date:

Monday, September 29, 2014

  Actual Average Record
Temperature  
Mean Temperature 73 °F -  
Max Temperature 87 °F 80 °F 100 °F (1998)
Min Temperature 59 °F 56 °F 46 °F (1999)
Cooling Degree Days 8    
Growing Degree Days 23 (Base 50)    
Moisture  
Dew Point 57 °F    
Average Humidity 62    
Maximum Humidity 92    
Minimum Humidity 35    
Precipitation  
Precipitation 0.00 in - - ()
Sea Level Pressure  
Sea Level Pressure 29.96 in    
Wind  
Wind Speed 6 mph (ESE)    
Max Wind Speed 14 mph    
Max Gust Speed 17 mph    
Visibility 10 miles    
Events      
Averages and records for this station are not official NWS values.
T = Trace of Precipitation, MM = Missing Value Source: NWS Daily Summary

Daily Weather History Graph

Daily Weather History Graph

Search for Another Location

Airport or City:

Trip Planner

Search our weather history database for the weather conditions in past years. The results will help you decide how hot, cold, wet, or windy it might be!

Date:

Astronomy

Sep. 29, 2014 Rise Set
Actual Time 7:30 AM CDT 7:23 PM CDT
Civil Twilight 7:05 AM CDT 7:48 PM CDT
Nautical Twilight 6:35 AM CDT 8:18 PM CDT
Astronomical Twilight 6:06 AM CDT 8:47 PM CDT
Moon 12:33 PM CDT (9/29) 11:10 PM CDT (9/29)
Length of Visible Light 12h 43m
Length of Day
11h 53m
Waxing Crescent, 28% of the Moon is Illuminated
Sep 29
Waxing Crescent
Oct 1
First Quarter
Oct 8
Full
Oct 15
Last Quarter
Oct 23
New

Hourly Weather History & Observations

Time (CDT) Temp. Heat Index Dew Point Humidity Pressure Visibility Wind Dir Wind Speed Gust Speed Precip Events Conditions
12:58 AM 63.7 °F - 57.2 °F 79% 30.00 in 10.0 mi SE 2.3 mph - N/A   Clear
1:58 AM 62.2 °F - 56.8 °F 82% 30.01 in 10.0 mi ENE 5.8 mph - N/A   Clear
2:58 AM 61.7 °F - 56.7 °F 84% 30.01 in 10.0 mi ESE 4.6 mph - N/A   Clear
3:58 AM 61.0 °F - 56.5 °F 85% 30.01 in 10.0 mi East 5.8 mph - N/A   Clear
4:58 AM 60.3 °F - 56.5 °F 87% 30.01 in 10.0 mi East 5.8 mph - N/A   Clear
5:58 AM 60.6 °F - 56.8 °F 87% 30.01 in 10.0 mi East 6.9 mph - N/A   Clear
6:58 AM 59.9 °F - 57.0 °F 90% 30.02 in 10.0 mi ENE 4.6 mph - N/A   Clear
7:58 AM 60.4 °F - 58.1 °F 92% 30.04 in 10.0 mi East 3.5 mph - N/A   Clear
8:58 AM 68.0 °F - 60.1 °F 76% 30.05 in 10.0 mi ESE 4.6 mph - N/A   Clear
9:58 AM 73.0 °F - 60.6 °F 65% 30.06 in 10.0 mi SSE 8.1 mph - N/A   Clear
10:58 AM 78.3 °F - 60.6 °F 54% 30.04 in 10.0 mi South 6.9 mph - N/A   Clear
11:58 AM 81.9 °F 82.3 °F 60.3 °F 48% 30.02 in 10.0 mi SSE 4.6 mph - N/A   Clear
12:58 PM 83.8 °F 83.4 °F 58.6 °F 42% 30.00 in 10.0 mi South 5.8 mph - N/A   Clear
1:58 PM 84.9 °F 84.1 °F 57.7 °F 39% 29.98 in 10.0 mi ESE 10.4 mph - N/A   Scattered Clouds
2:58 PM 85.1 °F 84.1 °F 57.0 °F 38% 29.94 in 10.0 mi SE 8.1 mph - N/A   Partly Cloudy
3:58 PM 87.3 °F 85.9 °F 56.7 °F 35% 29.92 in 10.0 mi SE 13.8 mph 17.3 mph N/A   Partly Cloudy
4:58 PM 87.1 °F 85.7 °F 55.9 °F 35% 29.89 in 10.0 mi SSE 11.5 mph - N/A   Clear
5:58 PM 85.8 °F 84.3 °F 55.6 °F 35% 29.88 in 10.0 mi SSE 13.8 mph - N/A   Clear
6:58 PM 82.8 °F 82.0 °F 55.8 °F 39% 29.88 in 10.0 mi SE 11.5 mph - N/A   Clear
7:58 PM 75.4 °F - 55.9 °F 51% 29.88 in 10.0 mi SE 8.1 mph - N/A   Clear
8:58 PM 71.1 °F - 56.3 °F 60% 29.88 in 10.0 mi SE 10.4 mph - N/A   Clear
9:58 PM 70.3 °F - 56.5 °F 61% 29.89 in 10.0 mi ESE 8.1 mph - N/A   Clear
10:58 PM 72.7 °F - 56.5 °F 57% 29.88 in 10.0 mi SE 9.2 mph - N/A   Clear
11:58 PM 72.0 °F - 56.1 °F 57% 29.86 in 10.0 mi SE 10.4 mph - N/A   Clear